This is the latest recevied weather packets stored in our database for station/object W4GAP. If no packets are shown the sender has not sent any weather packets the latest 1 day(s).
| Time | Temp. | Humidity | Pressure | Rain* | Wind** | Luminosity | Snow |
|---|---|---|---|---|---|---|---|
| 1777988699 | 17.78° C | 67% | 1013.4 hPa | 0 mm | 0 m/s | 41 W/m² | - |
| 1777988396 | 17.22° C | 69% | 1013.4 hPa | 0 mm | 0 m/s | 24 W/m² | - |
| 1777988093 | 16.67° C | 71% | 1013.4 hPa | 0 mm | 0 m/s | 19 W/m² | - |
| 1777987788 | 16.67° C | 70% | 1013.7 hPa | 0 mm | 0 m/s | 18 W/m² | - |
| 1777987485 | 16.11° C | 72% | 1013.4 hPa | 0 mm | 0 m/s | 17 W/m² | - |
| 1777987183 | 15.56° C | 73% | 1013.1 hPa | 0 mm | 0 m/s | 15 W/m² | - |
| 1777986880 | 15.56° C | 73% | 1013.1 hPa | 0 mm | 0 m/s | 16 W/m² | - |
| 1777986578 | 15° C | 75% | 1012.8 hPa | 0 mm | 0 m/s | 17 W/m² | - |
| 1777986276 | 15° C | 75% | 1013.1 hPa | 0 mm | 0 m/s | 14 W/m² | - |
| 1777985973 | 14.44° C | 75% | 1012.9 hPa | 0 mm | 0 m/s | 14 W/m² | - |
| 1777985670 | 14.44° C | 75% | 1013.1 hPa | 0 mm | 0 m/s | 18 W/m² | - |
| 1777985366 | 14.44° C | 75% | 1012.7 hPa | 0 mm | 0 m/s | 15 W/m² | - |
| 1777985063 | 13.89° C | 76% | 1013.1 hPa | 0 mm | 0 m/s | 13 W/m² | - |
| 1777984759 | 13.89° C | 76% | 1012.8 hPa | 0 mm | 0 m/s | 15 W/m² | - |
| 1777984456 | 13.89° C | 77% | 1012.8 hPa | 0 mm | 0 m/s | 23 W/m² | - |
| 1777984152 | 13.33° C | 77% | 1012.8 hPa | 0 mm | 0 m/s | 20 W/m² | - |
| 1777983850 | 13.33° C | 76% | 1012.9 hPa | 0 mm | 0 m/s | 15 W/m² | - |
| 1777983546 | 12.78° C | 77% | 1012.9 hPa | 0 mm | 0 m/s | 16 W/m² | - |
| 1777983243 | 12.78° C | 80% | 1012.8 hPa | 0 mm | 0 m/s | 15 W/m² | - |
| 1777982939 | 12.22° C | 80% | 1012.8 hPa | 0 mm | 0 m/s | 13 W/m² | - |
| 1777982635 | 12.22° C | 82% | 1013 hPa | 0 mm | 0 m/s | 11 W/m² | - |
| 1777982334 | 11.67° C | 82% | 1012.8 hPa | 0 mm | 0 m/s | 10 W/m² | - |
| 1777982032 | 11.67° C | 84% | 1012.8 hPa | 0 mm | 0 m/s | 10 W/m² | - |
| 1777981729 | 11.11° C | 86% | 1012.5 hPa | 0 mm | 0 m/s | 11 W/m² | - |
| 1777981426 | 11.11° C | 88% | 1012.5 hPa | 0 mm | 0 m/s | 10 W/m² | - |
* Rain latest hour (hover to see other rain measurements)
** Current wind speed in m/s (hover to see current wind gust speed)